Location: ???? ????
(31.2831°N, 45.5190°E)
Time: 23:13:31
(UTC+00:00)

Tiangong - Pass Details

Date: 05 October 2021
Orbit: 382 x 384 km, 41.5° (Epoch: 20 October)

Event Time Altitude Azimuth Distance (km) Brightness Sun altitude
Exits shadow 01:34:36 15° 345° (NNW) 1,146 3.3 -17.8°
Maximum altitude 01:35:51 18° 14° (NNE) 1,017 3.4 -17.5°
Drops below altitude 10° 01:38:07 10° 61° (ENE) 1,393 4.9 -17.0°
Sets 01:40:37 0° 81° (E) 2,243 6.8 -16.5°
